Location: Gajan
(43.0218°N, 1.1244°E)
Time: 06:52:37
(UTC+00:00)

BREEZE M DEB (TANK) - Pass Details

Date: 22 April 2021
Orbit: 343 x 13618 km, 49.6° (Epoch: 07 May)

Event Time Altitude Azimuth Distance (km) Brightness Sun altitude
Rises 19:48:46 0° 201° (SSW) 2,262 5.9 -11.3°
Reaches altitude 10° 19:50:22 10° 187° (S) 1,618 5.0 -11.5°
Maximum altitude 19:53:14 29° 123° (ESE) 1,270 4.1 -12.0°
Drops below altitude 10° 19:59:36 10° 65° (ENE) 3,724 6.7 -13.0°
Sets 20:05:38 0° 58° (ENE) 6,301 7.9 -13.9°
